Theta_e
304 304 305 306 309 309 305 304 305 306 307 307 308 312 314 314 312 311 311 309 310 310 310 310 310 308 309 311 309 307 306 308 310 310 312 314 315 315 315 315 314 314 313 314 314 311 312
304 304 304 304 304 306 309 308 303 304 305 307 306 307 309 310 310 310 309 309 309 308 310 308 308 309 309 310 308 306 307 308 310 310 312 314 313 313 313 313 313 313 312 313 312 312 313
305 304 304 304 303 304 305 309 308 304 304 305 307 307 307 307 307 307 308 310 308 307 310 310 310 311 309 308 308 307 306 307 309 310 310 312 313 313 313 312 313 313 312 312 313 314 312
305 304 304 304 303 303 303 305 309 308 304 304 306 307 308 308 308 308 309 309 307 307 308 309 309 310 306 308 309 308 309 307 307 308 309 309 311 313 314 312 313 312 312 315 313 312 312
305 305 305 304 304 304 303 303 306 309 308 304 304 306 307 307 308 309 309 306 307 306 306 306 310 309 308 309 308 307 310 308 307 307 307 309 312 312 312 309 309 310 311 315 313 312 312
304 305 305 305 304 304 304 303 304 307 309 308 304 304 306 306 307 309 306 307 307 307 306 306 309 309 309 309 308 307 307 309 308 307 308 311 312 308 307 307 309 312 310 312 313 311 310
304 305 305 305 305 305 304 304 304 304 308 308 307 304 304 305 306 306 307 312 313 310 308 311 310 310 308 309 309 308 308 308 310 312 312 313 309 311 309 309 310 310 311 312 311 311 311
304 305 305 305 305 306 305 305 304 304 306 308 307 306 305 305 305 306 307 308 310 309 308 309 309 309 308 311 311 308 310 311 312 312 311 309 312 309 309 310 311 311 312 313 312 311 311
303 304 305 305 305 305 306 305 305 304 304 308 307 306 305 304 305 305 306 307 308 311 312 309 310 310 309 312 311 309 311 310 311 311 311 312 310 309 309 310 312 309 311 311 312 311 311
304 304 305 305 305 306 306 306 305 305 304 306 308 306 305 304 305 305 307 308 308 307 311 311 311 309 311 311 310 308 310 311 311 312 309 309 308 309 310 310 310 313 309 311 312 309 309
305 305 304 305 305 306 306 306 306 305 304 304 307 307 307 304 308 306 308 307 308 311 303 314 311 310 309 312 311 309 308 310 310 310 310 311 309 310 311 309 309 312 309 310 311 311 311
305 306 306 305 305 305 306 306 306 306 305 304 305 308 306 306 306 307 307 305 311 307 301 312 311 312 311 311 310 309 308 309 310 311 308 309 307 307 307 308 308 309 310 310 310 309 310
306 307 307 306 306 306 306 306 306 306 305 304 305 306 308 306 308 305 307 307 310 306 311 313 313 311 311 311 310 310 309 308 309 309 312 310 308 307 308 310 309 310 311 313 315 311 311
308 307 307 307 307 306 306 306 306 306 306 305 305 305 308 307 306 305 306 310 312 311 309 312 312 311 311 309 310 309 310 308 307 309 310 309 312 309 307 309 311 311 311 310 312 315 313
308 308 308 307 307 307 306 306 305 305 305 305 304 306 307 309 308 308 315 309 307 312 312 311 311 310 310 309 310 310 308 309 306 306 309 312 311 306 306 306 308 311 309 310 310 310 309
309 309 308 308 307 307 306 306 306 305 305 305 305 306 309 309 309 309 312 314 313 311 311 310 307 308 309 308 307 308 308 308 306 306 307 309 311 307 306 307 308 309 309 308 305 308 316
310 309 309 308 308 307 306 305 306 305 305 305 305 312 314 312 309 314 308 310 312 311 310 310 309 308 309 309 306 307 308 307 306 305 306 308 309 309 307 306 308 306 308 308 307 309 310
310 309 309 309 308 307 306 306 305 305 305 305 306 306 311 310 311 311 311 312 310 309 309 310 310 311 307 308 309 309 308 308 307 306 307 308 307 305 309 306 306 308 309 307 306 309 307
310 309 308 309 309 307 307 306 306 305 306 306 306 311 310 311 308 310 311 311 310 309 309 309 309 310 310 309 310 310 308 306 306 306 306 306 306 304 309 307 306 308 308 308 305 304 309
307 308 308 307 309 308 307 307 306 305 305 306 305 306 310 309 310 310 311 311 310 311 311 310 310 310 310 310 310 310 308 305 305 306 307 308 308 306 307 310 308 307 307 307 305 301 306
300 303 306 307 308 308 308 307 307 306 305 306 305 305 310 308 309 307 310 310 311 311 310 310 310 309 309 309 309 309 308 305 305 306 306 305 303 308 308 308 309 308 308 307 304 306 306
298 300 301 304 307 308 308 308 308 307 306 306 304 308 309 306 309 307 309 308 311 311 309 310 309 309 308 309 309 308 308 307 306 305 305 304 303 296 298 305 306 306 306 306 306 307 307
299 300 300 300 301 304 307 308 308 309 307 305 306 307 304 304 305 306 306 308 309 310 309 310 308 309 308 308 309 309 309 308 306 304 304 304 302 300 305 305 302 302 303 305 305 305 306
298 298 299 299 300 301 301 305 307 309 309 307 306 305 305 304 304 306 307 308 308 309 309 309 309 308 307 308 308 308 308 307 308 307 306 304 303 302 302 301 302 303 302 302 303 302 301
297 298 298 298 299 300 300 300 302 307 308 308 306 305 303 301 303 304 306 307 307 307 307 306 305 307 307 306 302 302 300 301 302 300 300 302 305 303 303 301 302 302 302 302 301 300 297
295 296 297 297 298 297 297 299 301 302 304 306 306 304 302 302 303 305 304 306 305 305 304 302 304 305 305 302 302 303 303 302 301 301 299 300 305 306 302 304 305 300 299 301 300 300 296
293 294 295 297 297 297 296 298 301 301 301 302 304 304 301 302 302 302 302 304 306 304 302 301 302 303 304 301 302 302 302 301 302 302 300 301 302 307 307 307 303 298 299 299 299 297 294
292 293 294 295 297 297 298 300 300 300 300 300 301 302 302 300 301 298 300 301 302 302 301 301 300 300 301 303 303 302 301 300 299 299 300 302 303 301 303 306 305 298 297 297 294 294 293
291 291 292 294 296 297 299 299 301 300 299 298 300 300 300 299 300 301 299 298 298 298 300 300 297 300 301 302 302 302 303 298 297 298 299 302 302 302 303 302 296 296 295 294 293 292 291
Wind_Speed
23 23 23 22 21 19 14 10 6 6 7 7 6 5 6 7 6 5 4 5 6 7 7 13 18 13 5 3 2 1 5 10 12 13 14 12 7 2 2 6 4 3 3 6 5 4 3
22 23 23 22 22 21 18 14 9 6 5 5 4 4 3 3 3 3 4 5 6 7 9 14 11 6 2 1 2 4 6 10 12 12 12 11 4 4 5 4 4 3 7 7 4 2 2
19 21 22 23 23 22 20 16 13 8 5 3 3 3 2 2 2 3 4 5 6 6 10 12 10 5 5 6 7 7 9 8 10 11 12 9 7 4 5 4 6 9 4 1 4 4 1
17 18 19 21 23 23 22 19 15 13 7 3 2 2 2 2 3 4 4 5 5 6 10 12 7 2 5 6 5 8 10 7 8 7 8 9 10 7 3 11 4 3 3 2 2 6 3
16 17 18 19 20 22 23 22 17 13 11 5 2 1 1 2 3 3 4 5 7 9 9 7 5 2 3 5 3 8 7 9 9 9 10 11 7 4 6 5 4 1 3 4 2 5 3
16 15 17 17 17 19 21 22 21 17 14 8 4 2 1 1 2 3 4 8 9 8 7 8 5 2 3 1 5 7 9 8 7 12 8 4 3 3 3 4 4 3 3 3 4 5 3
18 16 16 16 18 18 18 20 21 18 16 13 5 2 1 1 2 4 8 4 3 3 4 3 3 7 8 10 6 6 7 10 8 6 3 1 5 3 3 3 3 2 1 1 2 3 3
16 18 18 16 15 17 19 18 19 21 15 15 9 3 2 2 3 5 2 2 3 5 7 8 7 6 6 5 4 5 5 3 3 3 3 5 2 2 2 2 2 1 1 2 2 3 1
16 17 18 19 17 15 16 18 18 17 18 14 12 5 2 0 3 2 1 1 6 4 3 2 4 2 3 3 3 2 3 4 2 4 3 5 2 1 0 2 3 4 3 2 0 4 3
15 16 16 17 19 17 16 15 17 17 15 13 11 7 4 1 1 1 3 6 4 1 4 1 1 1 3 5 3 4 4 3 2 4 5 4 1 1 1 3 2 3 1 2 2 4 2
16 15 17 16 16 17 18 16 14 16 16 11 10 7 3 3 0 2 2 2 1 2 4 3 3 3 3 2 6 3 4 3 3 3 6 3 2 1 2 2 1 3 2 2 1 1 2
20 17 15 16 17 16 15 17 14 13 14 14 7 6 4 1 4 4 4 2 0 6 4 3 5 4 3 2 2 4 2 4 4 3 6 2 1 2 2 2 2 4 3 3 3 2 2
19 18 17 16 15 17 17 15 16 14 12 12 10 4 3 3 1 4 7 2 5 4 0 3 4 4 4 4 3 4 4 2 4 5 1 1 1 0 2 2 1 2 5 3 4 3 5
21 21 20 19 19 17 16 16 14 14 13 12 10 7 4 3 4 5 5 4 3 5 5 2 4 3 4 4 2 3 3 2 4 3 3 5 4 5 1 1 5 4 5 5 6 3 4
21 20 20 19 20 20 18 15 14 14 13 12 8 7 8 6 6 6 4 3 6 6 5 9 3 4 4 2 3 3 6 5 6 7 7 5 1 1 3 2 2 2 2 3 5 3 3
24 22 20 19 18 22 21 17 13 11 13 12 8 8 10 8 7 9 4 5 4 2 4 3 6 6 8 6 5 7 7 3 6 2 2 4 4 2 1 2 1 2 1 3 3 2 4
28 25 22 19 18 20 20 17 14 12 8 10 7 4 6 8 10 6 4 7 3 2 3 5 5 5 5 7 8 5 6 1 4 3 1 2 3 2 3 5 7 1 1 1 3 4 4
29 26 23 22 18 18 18 13 13 12 8 5 4 2 7 12 3 4 4 5 3 4 3 1 1 1 7 7 5 4 7 2 8 9 7 2 5 3 4 2 2 2 5 5 4 4 3
31 27 23 23 21 17 15 15 13 11 8 6 4 4 8 16 4 3 3 3 5 5 4 5 5 3 1 5 4 4 5 1 7 4 6 5 1 2 5 4 3 3 4 4 5 3 4
5 25 26 24 23 20 16 14 11 10 8 6 4 1 6 12 8 5 5 5 5 8 4 5 3 4 3 3 1 5 4 2 5 4 5 4 3 6 7 4 4 4 5 5 6 3 4
22 11 9 23 25 22 19 16 14 9 10 7 6 5 4 3 6 5 5 5 6 6 5 10 3 6 7 6 5 5 4 3 1 4 3 5 5 2 3 2 1 5 5 7 8 8 8
31 24 10 9 22 23 22 18 17 12 9 12 4 3 2 4 4 7 5 6 9 5 8 5 5 9 7 5 7 9 8 5 5 2 4 1 1 3 4 5 2 5 8 11 8 8 11
23 21 19 12 13 17 21 21 19 16 13 7 6 8 3 5 2 4 5 7 8 8 8 10 11 4 7 7 10 11 8 8 13 9 6 6 5 3 4 2 5 6 11 12 4 3 4
22 21 20 21 14 15 18 19 23 21 20 17 15 7 3 4 4 5 2 4 6 6 8 4 4 7 6 14 13 9 9 9 7 5 8 6 6 3 3 3 2 4 2 3 7 4 5
21 21 20 20 24 18 14 20 19 19 24 24 19 13 7 3 6 6 5 4 4 3 3 5 3 6 16 8 4 4 4 4 1 5 4 1 5 2 3 4 6 3 3 4 5 1 3
25 25 21 22 22 24 24 21 22 19 20 20 24 21 12 3 6 11 3 10 4 3 2 3 7 14 10 3 3 6 5 5 5 1 5 4 3 4 3 4 5 2 2 2 3 2 5
23 25 26 24 24 24 23 23 23 24 21 16 16 23 15 5 5 3 3 4 7 6 3 5 7 5 5 2 3 4 4 6 6 8 5 4 2 8 5 4 6 5 5 2 4 4 5
24 24 23 25 27 24 22 20 21 20 20 18 16 15 18 9 3 1 2 1 2 5 4 8 6 1 2 3 4 4 3 5 4 6 7 7 7 4 3 3 8 11 5 4 6 6 4
24 24 24 26 27 22 20 22 17 14 10 10 13 12 12 10 5 15 4 2 3 4 5 10 2 3 7 3 1 2 1 1 4 4 0 3 5 5 7 4 9 7 12 11 9 9 3
Wind_Direction
25 28 27 22 17 14 18 13 10 26 40 36 48 70 86 85 92 95 66 51 81 96 113 133 141 144 134 135 158 213 145 152 155 162 159 145 168 236 173 139 120 95 133 103 119 127 128
19 20 22 25 22 15 11 13 9 8 28 50 48 72 85 109 100 77 60 72 78 90 121 134 135 163 189 153 173 97 136 147 156 160 159 159 135 107 107 97 93 114 121 131 154 205 187
23 17 17 17 19 22 15 8 12 8 6 22 45 51 62 50 56 53 65 77 83 98 126 131 131 134 83 138 97 99 93 131 158 174 162 166 153 135 124 99 116 126 93 100 187 194 153
18 19 16 14 13 15 17 16 10 8 0 353 8 28 32 29 22 53 73 80 89 102 118 123 140 108 84 130 106 123 109 106 145 165 158 159 155 123 89 119 93 119 110 136 217 161 163
11 13 15 13 12 9 13 15 13 10 2 343 326 346 5 28 50 67 89 96 101 98 107 128 125 67 116 110 113 120 139 122 110 119 127 134 137 114 123 101 36 291 206 174 219 195 129
2 6 7 8 10 11 8 12 12 7 8 354 326 296 342 33 79 111 102 110 95 95 102 125 104 134 124 97 93 107 121 125 112 114 107 108 96 86 48 86 198 208 225 180 173 221 184
348 353 359 3 1 6 9 8 9 10 3 3 348 307 243 168 135 125 120 121 114 81 61 87 106 103 111 101 92 96 117 110 108 86 99 117 77 153 154 133 174 241 252 121 124 211 171
340 339 344 351 358 358 -0 6 8 4 6 3 359 342 321 153 135 138 119 60 88 129 96 81 89 109 114 126 106 87 124 110 100 101 103 31 126 155 124 86 81 39 341 26 57 190 197
328 334 333 336 343 351 356 357 2 6 360 6 7 3 23 144 149 143 316 81 140 127 89 90 129 115 119 110 94 71 137 123 99 131 149 142 186 158 147 76 75 42 104 72 122 316 271
323 320 329 331 330 336 344 355 354 358 4 355 6 5 352 151 155 147 123 130 155 201 79 205 181 109 141 132 64 71 128 114 86 114 118 104 242 201 136 96 65 166 359 89 52 52 234
317 322 318 323 328 327 331 340 352 349 351 358 350 355 342 228 290 181 171 151 233 164 48 189 153 151 135 119 142 44 108 81 108 101 91 224 149 124 107 118 11 164 118 104 107 90 44
314 312 316 314 319 323 323 325 334 346 343 343 341 343 331 293 232 179 177 226 77 45 260 147 148 167 135 160 115 116 82 82 100 91 46 105 47 67 117 107 84 148 109 35 42 75 27
321 322 317 315 310 315 320 317 321 331 339 335 325 315 320 274 223 210 187 198 37 129 257 188 182 166 192 157 150 167 150 135 145 98 207 45 78 207 172 125 18 88 75 358 354 5 220
310 321 323 325 324 315 308 318 315 317 327 332 316 293 273 236 162 153 168 57 115 208 194 157 120 116 161 151 167 159 137 191 233 151 132 150 307 173 202 180 175 179 153 158 206 203 246
287 296 302 315 320 324 316 303 310 312 319 321 313 282 262 222 207 181 156 82 216 214 155 148 69 143 216 190 163 148 201 203 186 176 166 149 240 80 63 28 84 217 192 175 105 358 64
274 278 284 295 307 315 315 309 306 302 308 318 309 281 256 216 197 177 93 230 229 164 125 125 171 168 181 195 158 173 191 198 170 152 128 189 103 200 168 56 14 169 177 62 354 146 240
267 270 274 279 295 306 311 307 305 306 296 303 299 258 220 199 178 179 172 227 230 194 184 165 207 174 207 176 179 197 197 291 146 160 95 149 104 269 85 201 182 135 234 122 125 157 179
259 263 270 269 273 291 304 309 308 309 311 279 242 279 186 182 184 207 186 203 174 173 182 248 241 181 184 162 171 227 173 77 159 150 157 150 131 170 222 342 360 220 189 156 135 229 225
257 253 259 265 269 269 285 301 314 312 319 315 213 242 204 187 189 237 245 182 186 148 194 189 220 211 154 164 169 161 112 158 139 128 164 182 200 72 345 350 344 208 206 135 112 65 215
347 251 253 256 259 256 262 279 297 304 306 303 257 246 183 207 245 188 182 207 200 185 184 181 168 131 120 202 87 159 126 160 162 131 139 129 160 174 191 190 135 184 206 189 138 132 213
347 358 243 245 254 249 250 259 271 287 294 293 219 237 211 212 251 208 190 192 165 186 219 173 197 203 176 172 163 182 124 125 104 152 128 125 188 201 251 211 218 220 211 209 194 203 196
324 325 330 256 240 245 247 246 253 261 273 277 258 246 287 275 253 168 194 228 192 174 155 220 195 194 202 176 189 199 139 166 181 159 149 65 215 94 313 291 250 227 231 241 228 229 252
319 320 327 325 289 252 242 242 244 246 245 239 241 273 269 271 254 147 218 216 209 163 209 179 198 145 184 187 134 116 110 125 157 149 161 145 136 100 251 15 356 318 223 213 197 175 213
319 316 318 322 321 298 259 242 242 240 234 233 234 250 234 267 221 216 236 202 213 201 158 158 144 155 152 134 117 103 86 80 106 122 149 140 130 124 219 47 256 257 36 120 133 75 92
318 327 314 316 315 315 312 260 238 236 246 226 228 229 216 236 256 284 196 163 113 91 88 130 132 142 146 131 81 75 1 25 31 48 40 93 138 142 162 200 305 182 194 160 167 101 18
315 312 334 316 311 307 309 305 264 243 247 243 222 218 220 172 236 245 225 186 163 165 63 93 145 157 159 121 130 168 192 184 198 242 21 82 116 151 149 187 242 201 205 85 76 198 150
332 325 308 330 319 299 299 299 283 248 252 231 234 222 210 225 245 234 194 199 181 162 131 138 156 172 182 128 141 161 217 164 173 175 168 123 131 206 201 222 269 179 157 94 121 191 108
323 329 318 311 332 310 299 302 295 249 242 226 221 232 233 209 238 150 203 213 175 155 150 151 107 230 90 175 161 195 168 211 151 161 171 162 156 174 173 214 262 151 109 173 145 126 119
325 325 328 320 326 320 310 307 281 223 240 245 222 234 223 207 214 219 224 152 103 113 126 164 106 129 168 113 137 116 119 45 153 200 231 170 175 176 183 204 125 143 126 128 142 139 143